W5PDB Weather Reports


time (UTC)temp
C
wind
direction
speed
KPH
gust
KPH
rain 1hr
cm
rain 24hr
cm
rain mn
cm
humidity
%
barometer
mb
20260906203204 40 158 3.2 8.0 0.00 0.00 0.00 7 1014.0
20260906201204 40 135 8.0 8.0 0.00 0.00 0.00 7 1015.1
20260906200206 40 158 6.4 8.0 0.00 0.00 0.00 7 1015.2
20260906195204 39 90 1.6 8.0 0.00 0.00 0.00 7 1015.2
20260906194204 40 158 8.0 8.0 0.00 0.00 0.00 7 1015.1
20260906193204 40 202 3.2 8.0 0.00 0.00 0.00 7 1016.1
20260906190204 40 158 6.4 8.0 0.00 0.00 0.00 7 1016.2
20260906184204 39 158 6.4 8.0 0.00 0.00 0.00 7 1015.3
20260906182204 38 112 1.6 8.0 0.00 0.00 0.00 7 1016.4
20260906181204 38 158 11.3 8.0 0.00 0.00 0.00 7 1016.4
20260906175204 38 180 8.0 8.0 0.00 0.00 0.00 7 1017.4
20260906173204 38 225 12.9 8.0 0.00 0.00 0.00 7 1018.5
20260906171204 36 180 0.0 8.0 0.00 0.00 0.00 8 1018.8
20260906170204 36 112 1.6 8.0 0.00 0.00 0.00 8 1018.8
20260906164205 37 202 1.6 8.0 0.00 0.00 0.00 8 1018.7
20260906161206 36 135 0.0 8.0 0.00 0.00 0.00 8 1018.9
20260906160204 35 112 0.0 8.0 0.00 0.00 0.00 9 1018.9
20260906155205 34 90 1.6 8.0 0.00 0.00 0.00 9 1019.1
20260906012204 32 158 0.0 8.0 0.00 0.00 0.00 10 1015.1
20260905220204 40 135 9.7 8.0 0.00 0.00 0.00 7 1012.0
20260905215206 40 158 12.9 8.0 0.00 0.00 0.00 7 1012.1
20260905213204 40 135 11.3 8.0 0.00 0.00 0.00 7 1013.1
20260905211204 40 158 11.3 8.0 0.00 0.00 0.00 7 1013.0
20260905210207 40 158 0.0 8.0 0.00 0.00 0.00 7 1014.1
20260905205205 40 112 11.3 8.0 0.00 0.00 0.00 7 1014.1